LXFYG EDDM-EDSB

Flight info

Callsign LXFYG
Flight time 0h 35m
Altitude 24000
Route RIDAR6S RIDAR L173 RIXED/N0380F220 L173 LBU Z729 KRH KRH1L
Aircraft C25B/M-SDE2E3FGHRWXY/LB1

Departure

Time 2026-05-05 18:26
Airport Munich Airport (EDDM)

Arrival

Time 2026-05-05 19:01
Airport Karlsruhe Baden-Baden Airport (EDSB)
Time Latitude Longitude Altitude Speed Heading
2026-05-05 18:07 48.34700 11.76908 1480 ft 0 kts 263°
2026-05-05 18:15 48.34700 11.76907 1480 ft 1 kts 271°
2026-05-05 18:15 48.34714 11.76864 1478 ft 6 kts 322°
2026-05-05 18:15 48.34751 11.76850 1479 ft 5 kts 13°
2026-05-05 18:15 48.34767 11.76930 1480 ft 13 kts 83°
2026-05-05 18:16 48.34781 11.77104 1480 ft 19 kts 84°
2026-05-05 18:16 48.34795 11.77291 1480 ft 13 kts 83°
2026-05-05 18:16 48.34759 11.77399 1478 ft 7 kts 174°
2026-05-05 18:16 48.34702 11.77408 1477 ft 9 kts 174°
2026-05-05 18:17 48.34655 11.77414 1478 ft 7 kts 174°
2026-05-05 18:17 48.34643 11.77416 1480 ft 0 kts 174°
2026-05-05 18:17 48.34629 11.77452 1480 ft 9 kts 84°
2026-05-05 18:17 48.34639 11.77577 1477 ft 13 kts 90°
2026-05-05 18:18 48.34649 11.77713 1480 ft 15 kts 83°
2026-05-05 18:18 48.34666 11.77916 1480 ft 22 kts 83°
2026-05-05 18:18 48.34683 11.78137 1475 ft 16 kts 84°
2026-05-05 18:18 48.34697 11.78308 1474 ft 17 kts 82°
2026-05-05 18:19 48.34711 11.78487 1475 ft 18 kts 83°
2026-05-05 18:19 48.34727 11.78672 1477 ft 18 kts 82°
2026-05-05 18:19 48.34741 11.78863 1475 ft 19 kts 84°
2026-05-05 18:19 48.34755 11.79059 1475 ft 19 kts 83°
2026-05-05 18:20 48.34769 11.79257 1474 ft 19 kts 83°
2026-05-05 18:20 48.34786 11.79457 1480 ft 17 kts 83°
2026-05-05 18:20 48.34709 11.79555 1480 ft 17 kts 172°
2026-05-05 18:20 48.34601 11.79494 1474 ft 19 kts 232°
2026-05-05 18:21 48.34526 11.79343 1480 ft 15 kts 234°
2026-05-05 18:21 48.34488 11.79266 1477 ft 0 kts 230°
2026-05-05 18:24 48.34474 11.79239 1476 ft 8 kts 231°
2026-05-05 18:24 48.34421 11.79133 1474 ft 17 kts 234°
2026-05-05 18:24 48.34364 11.78956 1475 ft 5 kts 262°
2026-05-05 18:25 48.34323 11.78408 1480 ft 109 kts 265°
2026-05-05 18:25 48.34202 11.76834 1899 ft 182 kts 265°
2026-05-05 18:26 48.34039 11.74666 2637 ft 231 kts 266°
2026-05-05 18:26 48.33859 11.72171 3623 ft 249 kts 265°
2026-05-05 18:26 48.33670 11.69593 4590 ft 249 kts 264°
2026-05-05 18:26 48.33476 11.66977 5339 ft 256 kts 264°
2026-05-05 18:27 48.33273 11.64285 6106 ft 262 kts 263°
2026-05-05 18:27 48.33077 11.61539 6841 ft 267 kts 263°
2026-05-05 18:27 48.32868 11.58646 7197 ft 286 kts 263°
2026-05-05 18:27 48.32653 11.55663 7974 ft 286 kts 263°
2026-05-05 18:28 48.32211 11.49795 9725 ft 280 kts 262°
2026-05-05 18:28 48.32001 11.46893 10540 ft 278 kts 262°
2026-05-05 18:28 48.31781 11.44028 11369 ft 275 kts 262°
2026-05-05 18:29 48.31573 11.41177 12185 ft 276 kts 261°
2026-05-05 18:29 48.31347 11.38267 12721 ft 285 kts 261°
2026-05-05 18:29 48.31127 11.35276 13285 ft 292 kts 261°
2026-05-05 18:29 48.30888 11.32209 13818 ft 298 kts 261°
2026-05-05 18:30 48.30654 11.29054 13866 ft 310 kts 262°
2026-05-05 18:30 48.30777 11.25809 13823 ft 318 kts 283°
2026-05-05 18:30 48.31737 11.22799 13823 ft 325 kts 302°
2026-05-05 18:30 48.33305 11.20310 13822 ft 329 kts 311°
2026-05-05 18:31 48.34889 11.17831 13830 ft 330 kts 310°
2026-05-05 18:31 48.36487 11.15345 13838 ft 331 kts 311°
2026-05-05 18:31 48.38090 11.12855 13837 ft 332 kts 310°
2026-05-05 18:31 48.39694 11.10348 13841 ft 333 kts 310°
2026-05-05 18:32 48.41303 11.07842 13840 ft 333 kts 310°
2026-05-05 18:32 48.42908 11.05322 13839 ft 334 kts 310°
2026-05-05 18:32 48.44502 11.02840 13841 ft 334 kts 310°
2026-05-05 18:32 48.46131 11.00279 13838 ft 334 kts 310°
2026-05-05 18:33 48.47746 10.97759 13839 ft 334 kts 310°
2026-05-05 18:33 48.49333 10.95257 13839 ft 334 kts 310°
2026-05-05 18:33 48.50947 10.92731 13840 ft 334 kts 311°
2026-05-05 18:33 48.52559 10.90191 13999 ft 342 kts 310°
2026-05-05 18:34 48.54242 10.87534 14601 ft 356 kts 311°
2026-05-05 18:34 48.55986 10.84796 15320 ft 367 kts 311°
2026-05-05 18:34 48.57770 10.81977 16058 ft 375 kts 311°
2026-05-05 18:34 48.59594 10.79108 16813 ft 383 kts 311°
2026-05-05 18:35 48.61445 10.76164 17588 ft 389 kts 311°
2026-05-05 18:35 48.63322 10.73194 18341 ft 394 kts 311°
2026-05-05 18:35 48.65225 10.70163 19023 ft 400 kts 311°
2026-05-05 18:35 48.67184 10.67055 19148 ft 419 kts 311°
2026-05-05 18:36 48.69158 10.63917 19158 ft 402 kts 311°
2026-05-05 18:36 48.71053 10.60917 19159 ft 387 kts 311°
2026-05-05 18:36 48.72871 10.58004 19157 ft 375 kts 311°
2026-05-05 18:36 48.74645 10.55173 19179 ft 365 kts 311°
2026-05-05 18:37 48.76389 10.52344 19415 ft 376 kts 310°
2026-05-05 18:37 48.78206 10.49436 19662 ft 378 kts 311°
2026-05-05 18:37 48.80028 10.46570 19852 ft 378 kts 310°
2026-05-05 18:37 48.81597 10.43376 19854 ft 378 kts 298°
2026-05-05 18:38 48.82755 10.39789 19848 ft 380 kts 288°
2026-05-05 18:38 48.83425 10.35915 19854 ft 381 kts 278°
2026-05-05 18:38 48.83767 10.31927 19858 ft 382 kts 274°
2026-05-05 18:38 48.84006 10.27898 19857 ft 384 kts 273°
2026-05-05 18:39 48.84351 10.23865 19859 ft 387 kts 277°
2026-05-05 18:39 48.84822 10.19834 19863 ft 389 kts 277°
2026-05-05 18:39 48.85233 10.15774 19855 ft 389 kts 276°
2026-05-05 18:39 48.85597 10.11699 19854 ft 390 kts 275°
2026-05-05 18:40 48.85980 10.07612 19850 ft 391 kts 276°
2026-05-05 18:40 48.86381 10.03521 19857 ft 392 kts 276°
2026-05-05 18:40 48.86775 9.99425 19852 ft 392 kts 276°
2026-05-05 18:40 48.87165 9.95325 19853 ft 392 kts 276°
2026-05-05 18:41 48.87548 9.91216 19857 ft 393 kts 276°
2026-05-05 18:41 48.87936 9.87113 19854 ft 393 kts 276°
2026-05-05 18:41 48.88314 9.83097 19854 ft 393 kts 276°
2026-05-05 18:41 48.88705 9.78945 19857 ft 393 kts 276°
2026-05-05 18:42 48.89083 9.74834 19858 ft 393 kts 275°
2026-05-05 18:42 48.89467 9.70727 19854 ft 393 kts 276°
2026-05-05 18:42 48.89844 9.66611 19853 ft 393 kts 276°
2026-05-05 18:42 48.90222 9.62576 19845 ft 373 kts 276°
2026-05-05 18:43 48.90542 9.59086 19677 ft 354 kts 275°
2026-05-05 18:43 48.90874 9.55438 19233 ft 345 kts 275°
2026-05-05 18:43 48.91196 9.51863 18794 ft 338 kts 275°
2026-05-05 18:43 48.91515 9.48356 18359 ft 332 kts 275°
2026-05-05 18:44 48.91826 9.44897 17896 ft 328 kts 275°
2026-05-05 18:44 48.92138 9.41484 17407 ft 323 kts 275°
2026-05-05 18:44 48.92435 9.38122 16928 ft 320 kts 275°
2026-05-05 18:44 48.92733 9.34837 16472 ft 317 kts 275°
2026-05-05 18:45 48.93024 9.31541 15999 ft 313 kts 275°
2026-05-05 18:45 48.93317 9.28264 15548 ft 311 kts 275°
2026-05-05 18:45 48.93604 9.25007 14960 ft 311 kts 275°
2026-05-05 18:45 48.93891 9.21737 14261 ft 312 kts 275°
2026-05-05 18:46 48.94183 9.18470 13567 ft 310 kts 275°
2026-05-05 18:46 48.94463 9.15233 12809 ft 308 kts 275°
2026-05-05 18:46 48.94749 9.12020 12060 ft 305 kts 275°
2026-05-05 18:46 48.95020 9.08831 11337 ft 303 kts 275°
2026-05-05 18:47 48.95302 9.05668 10626 ft 300 kts 275°
2026-05-05 18:47 48.95568 9.02527 9931 ft 298 kts 275°
2026-05-05 18:47 48.95840 8.99416 9189 ft 295 kts 275°
2026-05-05 18:47 48.96102 8.96342 8441 ft 290 kts 275°
2026-05-05 18:48 48.96361 8.93346 7710 ft 280 kts 275°
2026-05-05 18:48 48.96610 8.90459 6992 ft 272 kts 275°
2026-05-05 18:48 48.96845 8.87640 6290 ft 265 kts 275°
2026-05-05 18:48 48.97083 8.84879 5547 ft 261 kts 275°
2026-05-05 18:49 48.97306 8.82231 5034 ft 250 kts 275°
2026-05-05 18:49 48.97524 8.79647 4527 ft 245 kts 276°
2026-05-05 18:49 48.97746 8.77047 4001 ft 249 kts 275°
2026-05-05 18:49 48.97962 8.74421 3831 ft 240 kts 275°
2026-05-05 18:50 48.98173 8.71971 3822 ft 227 kts 276°
2026-05-05 18:50 48.98363 8.69664 3824 ft 220 kts 275°
2026-05-05 18:50 48.98556 8.67351 3821 ft 215 kts 275°
2026-05-05 18:50 48.98738 8.65129 3824 ft 213 kts 275°
2026-05-05 18:51 48.98927 8.62906 3822 ft 211 kts 275°
2026-05-05 18:51 48.99102 8.60698 3821 ft 209 kts 274°
2026-05-05 18:51 48.99004 8.58532 3818 ft 205 kts 256°
2026-05-05 18:51 48.98788 8.56395 3820 ft 205 kts 265°
2026-05-05 18:52 48.98718 8.54231 3820 ft 205 kts 265°
2026-05-05 18:52 48.98643 8.52068 3820 ft 205 kts 266°
2026-05-05 18:52 48.98569 8.49915 3914 ft 201 kts 265°
2026-05-05 18:52 48.98502 8.47800 3992 ft 200 kts 265°
2026-05-05 18:53 48.98430 8.45669 3988 ft 203 kts 265°
2026-05-05 18:53 48.98362 8.43512 3990 ft 205 kts 265°
2026-05-05 18:53 48.98290 8.41340 3993 ft 206 kts 265°
2026-05-05 18:53 48.98219 8.39152 3996 ft 207 kts 265°
2026-05-05 18:54 48.98147 8.36961 3999 ft 208 kts 265°
2026-05-05 18:54 48.98073 8.34758 3995 ft 208 kts 265°
2026-05-05 18:54 48.98005 8.32551 4000 ft 209 kts 265°
2026-05-05 18:54 48.97932 8.30351 4007 ft 206 kts 265°
2026-05-05 18:55 48.97870 8.28224 4005 ft 195 kts 265°
2026-05-05 18:55 48.97566 8.26308 3985 ft 185 kts 236°
2026-05-05 18:55 48.96506 8.25266 3994 ft 185 kts 200°
2026-05-05 18:55 48.95376 8.24416 3990 ft 179 kts 216°
2026-05-05 18:56 48.94293 8.23436 3945 ft 184 kts 212°
2026-05-05 18:56 48.93182 8.22411 3720 ft 189 kts 214°
2026-05-05 18:56 48.92447 8.21695 3553 ft 191 kts 214°
2026-05-05 18:56 48.91303 8.20647 3302 ft 193 kts 213°
2026-05-05 18:57 48.90168 8.19540 3043 ft 195 kts 213°
2026-05-05 18:57 48.89002 8.18476 2779 ft 196 kts 212°
2026-05-05 18:57 48.87854 8.17362 2515 ft 194 kts 213°
2026-05-05 18:57 48.86756 8.16354 2263 ft 175 kts 211°
2026-05-05 18:58 48.85766 8.15400 2059 ft 157 kts 213°
2026-05-05 18:58 48.84903 8.14612 1839 ft 136 kts 210°
2026-05-05 18:58 48.84133 8.13878 1653 ft 127 kts 214°
2026-05-05 18:58 48.83402 8.13153 1456 ft 126 kts 212°
2026-05-05 18:59 48.82675 8.12482 1238 ft 116 kts 210°
2026-05-05 18:59 48.81986 8.11854 1045 ft 116 kts 211°
2026-05-05 18:59 48.81302 8.11218 946 ft 115 kts 212°
2026-05-05 18:59 48.80625 8.10567 837 ft 115 kts 212°
2026-05-05 19:00 48.79941 8.09932 691 ft 115 kts 212°
2026-05-05 19:00 48.79262 8.09291 541 ft 115 kts 211°
2026-05-05 19:00 48.78584 8.08662 415 ft 109 kts 212°
2026-05-05 19:00 48.78011 8.08121 409 ft 86 kts 212°
2026-05-05 19:01 48.77560 8.07697 408 ft 60 kts 212°
2026-05-05 19:01 48.77365 8.07565 408 ft 18 kts 143°
2026-05-05 19:01 48.77309 8.07689 407 ft 0 kts 122°
2026-05-05 19:01 48.77304 8.07701 407 ft 5 kts 120°
2026-05-05 19:02 48.77312 8.07759 407 ft 7 kts 33°
2026-05-05 19:02 48.77361 8.07805 407 ft 9 kts 32°
2026-05-05 19:02 48.77424 8.07864 407 ft 12 kts 32°
2026-05-05 19:02 48.77438 8.07962 407 ft 13 kts 123°
2026-05-05 19:03 48.77384 8.08072 407 ft 14 kts 123°
2026-05-05 19:03 48.77341 8.08208 407 ft 15 kts 71°
2026-05-05 19:03 48.77374 8.08255 407 ft 0 kts 32°